GFSSE_500_spd_159.txt.gz
Wind_Speed
16 14 13 12 11 10 11 10 10 10 9 9 9 8 9 11 12 12 13 12 13 11 10 6 5 4 4 5 3 3 4 6 6 6 6 6 6 7 7 7 7 9 11
18 16 14 13 12 10 9 8 8 9 10 12 12 12 11 11 10 11 12 13 13 12 10 9 8 6 5 7 6 4 4 5 6 6 7 6 5 6 7 7 6 7 8
15 14 13 12 9 8 7 6 6 6 8 9 10 10 12 13 13 12 12 12 12 11 10 8 9 9 7 7 8 7 6 6 6 7 7 5 6 5 6 7 7 6 6
13 11 11 10 9 8 7 7 8 9 10 11 10 10 10 12 13 14 14 13 13 13 15 13 11 11 11 9 10 9 9 8 8 8 7 7 7 6 6 7 8 7 6
15 14 12 11 11 10 8 9 10 11 14 15 16 14 13 13 12 12 13 14 15 14 15 18 16 14 14 12 12 11 11 11 9 10 9 8 7 8 7 7 8 7 7
17 16 15 14 13 10 11 11 12 14 14 14 14 15 16 16 14 14 12 13 14 16 17 18 20 18 18 16 15 14 13 13 12 11 11 9 8 8 9 8 8 8 9
20 19 18 16 14 13 14 14 13 12 14 14 14 16 19 18 15 16 16 15 14 14 18 21 22 21 20 20 19 18 16 15 15 13 12 11 10 9 9 8 8 8 8
21 20 20 18 16 16 16 16 14 13 15 17 18 19 18 23 22 21 22 19 18 17 17 19 23 24 23 22 22 21 19 17 16 15 14 14 13 11 11 9 7 6 6
23 22 21 21 20 19 18 17 18 19 20 20 21 23 22 28 29 29 27 25 22 20 20 20 21 24 26 25 23 22 22 20 18 17 16 16 15 13 12 10 8 6 6
26 23 24 24 22 22 21 21 22 24 23 24 25 26 27 26 26 29 29 28 27 26 24 23 23 24 25 27 26 24 23 23 20 20 19 18 18 15 14 12 10 8 8
28 27 26 26 25 25 24 25 26 27 27 27 28 30 30 28 29 30 31 31 30 30 29 27 24 25 26 24 28 27 24 22 21 22 23 20 21 18 17 15 12 11 10
27 28 29 29 28 27 28 28 28 29 30 30 31 33 33 32 32 33 34 33 32 32 32 30 29 28 27 27 27 28 27 23 22 22 24 23 22 21 19 18 15 14 13
27 29 30 30 30 31 30 29 30 31 32 33 34 35 35 36 37 38 40 38 36 36 37 36 34 32 29 29 28 30 29 25 22 23 24 26 24 24 22 20 18 17 15
27 29 30 30 31 31 31 32 33 34 36 36 37 37 39 39 42 43 43 41 38 37 39 39 38 38 36 34 33 31 31 29 24 23 24 26 26 26 25 24 21 19 17
27 29 29 30 31 32 33 34 35 36 37 38 40 42 44 46 47 47 44 42 40 35 35 35 36 38 37 36 36 36 34 30 26 25 25 26 27 28 28 27 24 22 19
27 28 29 29 30 32 34 35 36 37 38 41 44 48 49 45 43 42 43 43 42 42 40 35 36 38 36 36 39 39 36 32 29 26 27 27 29 29 30 30 27 24 22
28 29 31 31 33 33 34 35 35 37 40 45 49 48 45 44 42 42 42 43 44 45 43 42 34 40 37 37 37 36 35 33 31 28 28 28 30 31 32 31 30 27 24
27 30 32 33 34 33 33 33 36 39 44 46 45 44 44 44 44 45 45 44 44 45 45 43 41 42 34 42 40 39 35 34 32 32 31 30 31 32 33 32 31 28 26
27 29 31 33 33 32 31 33 37 42 41 42 45 44 40 38 42 44 44 44 44 41 39 38 38 38 38 32 35 36 31 34 34 31 32 32 31 32 33 32 31 30 28
26 29 30 30 30 29 30 34 39 34 36 41 39 38 37 38 41 43 44 45 45 42 37 37 42 35 31 22 34 45 41 35 35 33 30 31 31 32 32 32 31 30 28
27 28 27 28 28 28 30 36 33 31 34 35 34 33 38 37 41 42 41 42 42 42 39 34 43 38 31 35 36 36 36 38 33 32 35 34 31 31 31 32 32 31 30
27 26 26 26 27 28 32 37 30 32 31 32 30 31 32 34 34 35 35 37 35 43 36 40 39 36 35 30 31 30 33 37 37 32 33 32 31 31 32 32 32 32 31
26 25 24 25 26 28 34 33 29 29 28 26 25 27 24 21 11 7 17 29 34 38 36 33 33 27 30 30 34 31 28 36 37 37 35 33 33 33 34 34 33 33 33
23 23 23 23 25 28 34 29 28 27 25 22 23 22 16 13 7 10 12 13 25 21 22 29 25 24 18 21 27 29 29 37 35 43 42 40 37 36 37 37 37 37 36
21 21 21 22 25 28 32 26 25 24 23 18 20 20 12 9 4 6 6 3 10 23 23 23 23 21 20 20 26 32 32 34 37 40 45 42 40 38 38 37 37 35 35
19 19 19 22 24 27 27 22 21 22 22 18 17 18 10 10 11 9 8 7 15 18 20 22 23 21 25 17 21 31 34 38 43 42 42 39 42 36 36 36 34 35 37

GFSSE_500_spd_162.txt.gz
Wind_Speed
18 16 15 13 12 12 12 12 10 10 10 10 10 10 11 13 14 14 14 13 11 10 7 6 5 6 6 4 3 4 4 4 6 6 7 7 8 7 7 7 8 10 11
21 20 18 16 14 14 13 12 12 12 13 13 13 13 12 13 12 13 14 13 14 12 8 11 8 7 8 7 6 5 5 4 5 6 7 6 7 8 8 8 8 8 11
23 21 21 18 14 12 11 9 8 7 8 9 10 10 11 14 14 14 14 14 13 10 13 11 10 9 10 9 9 8 7 6 6 7 8 8 7 8 9 9 9 8 10
22 21 17 16 14 13 11 8 7 7 8 9 9 9 9 10 11 12 15 16 16 14 15 16 15 12 11 11 11 11 10 8 8 9 8 9 7 9 9 9 10 8 9
20 19 17 16 15 14 11 9 8 9 10 11 12 12 12 12 12 12 12 13 16 17 17 17 18 16 14 13 13 13 12 11 9 10 10 10 10 9 9 9 10 10 8
19 19 18 16 16 14 12 11 12 11 11 9 9 9 10 11 12 14 13 14 13 14 17 20 20 20 18 17 16 16 14 14 13 11 12 12 12 11 10 10 9 9 9
20 20 20 18 17 15 15 15 14 13 11 10 10 11 12 12 11 14 15 17 14 15 15 16 20 23 22 21 19 18 17 16 16 14 13 13 13 12 12 11 9 8 8
20 21 21 20 19 18 17 16 16 15 14 15 15 16 15 16 17 19 20 21 17 17 19 17 17 19 21 24 23 20 20 18 18 17 16 14 14 14 14 13 11 9 7
21 23 23 23 21 21 20 19 17 18 20 19 20 20 20 20 22 23 24 25 23 21 21 19 19 20 20 20 24 25 22 21 19 19 19 17 15 16 16 15 13 10 9
23 24 24 24 24 24 24 23 21 22 23 23 23 24 24 24 25 26 26 27 27 25 24 23 24 22 22 21 22 25 27 23 22 21 20 20 19 17 18 17 16 13 11
24 25 24 25 27 27 27 27 28 27 26 26 27 27 27 28 28 28 28 29 31 30 29 28 27 25 25 23 24 25 27 27 25 23 21 22 21 20 19 19 19 16 13
25 26 26 26 28 29 29 31 32 30 28 29 28 30 30 30 30 30 30 31 32 33 33 33 33 31 27 26 27 27 27 27 25 24 23 23 23 22 22 21 21 19 16
25 27 28 27 28 29 31 33 32 30 30 30 31 32 33 33 33 33 34 35 35 36 35 34 35 36 34 32 30 30 29 29 28 25 25 24 24 24 24 23 23 22 19
26 27 29 29 29 29 31 32 32 32 32 32 33 34 35 35 35 36 38 40 41 42 43 41 38 35 37 38 37 34 32 30 29 28 26 26 26 25 25 24 25 25 22
27 27 27 27 27 28 29 31 33 34 34 34 34 35 36 37 38 41 44 47 49 48 48 44 41 35 35 37 40 38 38 36 32 30 29 28 27 26 26 27 27 27 25
27 27 26 26 27 28 30 32 35 35 36 35 35 37 39 41 43 46 49 50 50 49 48 48 43 38 33 33 35 37 37 37 36 31 30 29 29 27 28 28 29 28 28
26 26 25 26 26 27 29 32 34 36 35 35 36 39 43 47 45 43 43 44 46 47 46 45 43 40 37 31 37 36 38 35 36 36 32 31 30 29 28 29 30 30 29
27 26 25 27 27 28 31 31 34 33 33 35 38 43 45 39 40 42 44 43 44 47 45 45 43 41 43 37 34 31 35 35 34 34 34 33 30 29 28 29 31 31 29
27 27 27 28 29 30 30 31 31 31 33 36 42 38 36 36 37 38 42 44 46 48 48 46 44 42 44 41 43 36 41 37 36 35 35 36 33 31 29 30 31 31 31
28 27 27 28 29 30 30 29 29 30 34 40 37 37 37 37 38 38 39 42 43 44 44 45 43 42 40 39 38 41 48 45 40 36 36 35 37 34 31 30 30 31 31
26 26 27 27 28 29 29 26 29 32 36 38 35 35 37 37 37 39 39 43 44 44 43 43 43 40 35 37 34 40 30 38 36 38 36 38 34 32 32 30 30 32 33
27 26 26 27 28 27 25 27 28 34 38 34 34 35 34 34 33 35 35 35 39 39 39 41 44 41 38 31 35 34 33 33 39 38 40 39 37 34 33 32 31 32 33
27 26 26 27 26 24 24 26 30 35 35 32 33 33 30 28 30 32 28 21 20 30 37 33 41 40 34 38 35 22 30 30 33 35 44 38 38 36 34 34 34 34 34
27 27 25 24 23 23 24 26 32 36 30 30 31 28 25 23 24 21 18 16 16 13 36 26 35 29 25 23 20 26 30 32 29 37 34 37 37 35 37 38 37 38 39
24 23 23 22 21 21 23 28 34 32 26 27 27 24 22 19 18 8 8 12 10 15 15 22 24 23 21 20 21 19 20 27 30 26 25 26 39 40 42 43 42 41 39
22 21 21 21 20 19 23 29 33 27 23 24 22 21 21 18 17 19 18 13 7 9 16 15 17 18 20 21 20 13 20 23 25 31 31 32 32 40 46 46 40 38 39

GFSSE_500_spd_165.txt.gz
Wind_Speed
16 16 16 15 14 14 14 14 12 12 11 11 11 11 11 12 14 14 15 15 13 13 12 10 8 8 7 6 7 6 6 7 6 7 8 9 9 9 10 12 13 13 15
19 19 19 19 18 17 16 16 15 15 15 14 14 13 13 14 13 13 14 15 13 11 12 13 14 10 9 9 8 8 7 8 7 6 9 9 9 9 10 12 14 14 13
23 22 22 22 21 19 18 15 13 12 11 9 9 10 11 13 13 15 15 15 14 13 13 14 13 12 12 11 11 10 10 8 10 7 7 11 10 10 10 11 13 15 14
24 23 23 23 22 20 17 14 11 9 8 8 9 10 10 10 11 10 12 15 16 16 15 16 17 16 14 13 13 13 12 11 11 10 8 9 12 11 11 11 11 13 14
23 22 21 19 20 19 17 14 11 11 10 10 10 11 12 13 12 12 12 14 14 15 15 17 18 20 18 17 16 15 15 14 13 13 12 9 11 12 12 12 12 12 13
21 20 19 19 19 20 18 15 14 13 12 10 7 6 6 7 8 10 11 13 15 16 15 15 17 20 21 20 19 19 18 17 16 15 15 13 11 12 12 12 13 12 12
21 20 19 21 21 21 19 17 15 13 13 11 11 10 10 11 11 11 11 13 15 15 15 15 16 17 19 21 22 20 20 20 19 18 17 16 15 12 13 12 13 12 12
20 20 21 22 23 22 20 19 17 15 15 14 14 14 16 16 16 16 17 18 18 17 19 18 19 20 19 18 20 21 22 21 21 20 19 18 17 16 14 14 13 13 11
19 22 23 23 24 24 22 22 20 18 18 19 19 20 21 20 21 22 21 22 22 20 20 21 22 22 22 20 21 22 21 23 21 22 21 20 19 18 17 16 15 13 12
22 25 25 26 26 26 25 25 23 21 22 22 23 24 24 24 24 25 25 25 25 26 26 25 25 25 27 25 23 24 24 23 23 22 23 22 21 20 19 19 17 15 13
27 27 28 27 26 28 27 27 27 25 27 27 27 27 27 27 28 29 28 29 28 28 29 29 29 29 29 29 28 27 26 26 23 23 24 24 24 23 22 20 19 17 15
30 29 28 27 25 28 27 28 29 29 30 30 30 32 30 29 30 32 31 32 31 30 30 31 31 32 32 31 31 31 30 29 25 25 24 24 25 25 24 22 20 19 19
29 29 27 27 26 26 27 28 29 31 31 31 31 32 31 31 33 35 34 35 34 32 34 34 34 34 33 34 36 34 34 33 31 26 26 24 25 25 26 25 23 21 20
26 27 27 26 26 27 28 28 27 30 30 30 31 32 31 33 35 36 36 37 36 37 37 38 40 39 39 39 40 42 39 37 34 31 29 28 26 26 27 28 26 23 22
27 25 26 26 27 29 28 28 27 28 29 30 32 33 34 35 36 36 37 39 40 42 43 45 45 44 43 43 41 41 42 41 34 35 32 32 29 27 28 28 27 26 25
26 25 24 25 27 27 26 25 26 28 30 32 34 34 34 34 35 37 39 43 46 48 47 45 44 43 44 44 42 39 41 43 38 37 37 33 32 30 29 28 27 27 27
28 26 26 27 26 26 27 27 29 30 31 33 33 34 34 35 37 40 41 41 40 40 43 44 44 42 39 40 42 38 38 38 36 36 37 34 33 32 31 29 27 28 29
30 30 28 26 26 28 28 28 29 30 32 33 33 33 35 36 40 39 37 39 39 40 44 46 47 45 42 38 38 39 40 33 36 33 35 35 34 34 34 30 28 28 29
32 29 28 28 27 28 28 29 30 31 32 32 32 33 36 38 37 35 39 40 39 42 43 45 47 47 46 43 39 40 44 34 34 33 33 33 34 36 35 31 29 29 30
33 32 30 29 28 28 29 30 31 31 31 30 32 34 38 38 35 36 39 39 39 40 43 45 46 45 43 43 42 41 41 40 31 34 36 37 38 39 36 34 29 30 30
34 33 31 30 30 30 31 29 30 29 29 30 32 38 39 39 37 38 39 38 37 38 37 41 47 44 41 40 39 41 42 43 34 41 43 45 44 40 39 35 31 31 32
34 33 31 31 31 31 30 29 27 28 29 31 35 39 39 36 34 37 36 36 38 33 33 33 40 45 42 38 37 37 37 39 38 42 33 35 44 40 38 37 33 33 34
34 33 31 31 31 29 29 28 27 27 30 33 37 39 33 31 32 34 32 34 34 31 34 37 31 36 41 42 34 30 30 31 38 35 28 31 36 42 42 39 35 34 35
34 33 32 30 29 28 27 27 27 28 30 33 37 33 29 28 30 30 28 25 20 22 26 28 24 19 30 26 29 32 31 30 30 22 25 29 31 41 39 41 38 37 38
33 34 32 30 27 25 25 25 27 27 31 34 34 27 27 28 29 25 24 19 22 25 26 23 13 22 24 22 27 30 28 23 25 25 26 33 28 32 39 43 45 43 42
32 32 30 27 26 24 24 25 25 28 32 34 27 26 28 28 26 22 22 24 25 22 18 18 19 16 21 18 23 25 27 21 17 24 24 25 25 22 23 36 47 45 46

GFSSE_500_spd_171.txt.gz
Wind_Speed
12 12 13 13 13 14 14 14 14 13 13 13 13 13 13 11 12 13 12 13 13 13 13 14 14 13 13 14 13 13 13 13 14 14 15 15 13 13 13 13 13 15 16
15 15 16 16 16 17 18 18 17 17 16 17 16 15 15 15 14 15 15 15 15 14 12 12 13 14 15 14 15 15 14 14 15 16 15 15 17 14 13 13 14 15 16
21 20 19 20 19 20 21 21 20 19 18 18 16 14 11 12 9 10 10 12 12 12 12 13 13 13 14 15 16 16 16 16 15 16 16 16 15 17 15 13 12 14 15
23 23 23 23 23 23 23 22 20 18 17 15 13 11 10 10 10 10 8 10 11 10 9 10 11 13 15 15 16 17 18 17 16 18 17 17 16 15 17 15 13 13 14
25 24 26 24 24 25 25 24 21 17 17 15 14 13 12 12 12 10 9 9 9 8 8 10 12 12 14 16 17 17 18 19 18 18 18 18 18 16 15 16 14 13 14
25 26 25 25 24 24 24 23 20 18 17 16 15 15 13 11 11 9 10 11 11 11 11 11 12 14 14 14 15 17 18 19 19 19 19 19 19 19 18 16 14 13 14
24 28 25 25 24 23 23 21 20 20 20 18 16 16 14 12 12 13 12 13 13 12 13 14 16 16 15 16 16 17 17 18 19 19 20 20 19 18 18 18 17 15 12
18 21 22 21 22 23 23 22 22 23 22 21 18 17 16 15 14 15 16 17 19 17 17 18 18 18 19 20 19 19 18 19 21 20 19 20 20 19 19 17 17 16 15
18 22 24 21 20 24 23 24 24 25 24 23 21 19 19 19 18 18 19 21 22 21 20 21 22 23 22 22 22 21 21 22 22 23 22 21 19 20 20 20 17 16 16
28 23 27 22 21 22 25 25 27 28 27 26 24 23 22 21 21 21 22 23 25 25 24 25 26 27 27 25 24 25 25 25 26 25 24 23 22 21 21 21 21 18 16
33 28 27 29 24 26 27 27 27 29 29 28 27 27 25 23 24 25 25 27 28 27 27 28 27 29 29 27 27 26 27 26 28 29 28 26 24 24 22 23 23 21 19
26 32 31 32 31 28 29 28 28 29 29 29 29 29 28 27 28 30 29 29 28 28 29 30 30 30 31 30 29 28 29 27 28 32 30 29 28 26 25 23 24 25 22
19 24 26 31 32 33 31 30 28 28 29 30 31 31 30 29 31 32 31 28 30 30 29 30 31 30 31 32 32 31 31 31 32 35 33 32 30 29 28 26 25 26 26
23 25 25 24 25 28 28 30 26 24 27 28 27 28 29 26 29 28 29 30 31 30 29 30 30 31 32 34 35 33 31 32 34 37 37 35 34 34 32 29 26 27 28
23 25 25 24 24 25 26 24 22 24 25 25 26 29 28 27 29 29 30 30 30 31 31 32 33 33 36 32 31 31 29 31 34 36 35 38 36 36 35 33 30 28 29
23 21 22 23 21 23 24 24 23 27 25 27 27 26 28 28 29 30 30 30 29 32 32 35 36 38 34 31 33 33 32 32 34 36 37 37 37 35 35 35 34 30 30
24 21 19 22 21 23 24 24 25 24 23 26 25 26 30 29 30 30 31 30 29 34 34 36 38 34 34 33 37 38 37 35 34 37 40 40 37 37 34 33 36 35 32
28 24 20 20 23 24 22 24 25 24 23 26 26 28 29 30 32 31 31 31 33 34 37 38 34 34 33 35 37 40 38 38 34 35 39 37 38 35 33 36 37 37 33
33 28 23 22 24 26 23 24 24 24 25 27 29 31 32 30 29 31 31 32 34 36 38 38 33 33 35 35 39 39 37 38 36 34 37 37 33 31 30 31 34 33 34
35 31 25 23 26 26 24 26 25 26 27 28 30 32 33 31 28 31 33 32 35 37 39 36 33 34 33 36 36 41 41 37 34 32 31 33 35 36 31 28 31 33 33
35 33 27 28 28 27 25 27 27 28 29 32 33 32 32 32 30 32 35 36 37 39 34 31 33 32 33 35 36 36 37 37 32 32 32 33 33 33 31 25 27 27 30
34 33 30 28 29 28 28 28 28 29 31 31 32 33 32 32 31 32 34 38 39 31 30 31 30 30 31 27 30 34 39 38 37 39 32 29 31 31 35 38 29 29 29
32 33 32 30 29 27 29 28 29 29 30 31 31 32 33 32 33 34 35 37 32 28 28 30 28 28 29 29 33 32 37 36 28 22 32 23 23 23 28 31 38 35 35
31 31 33 30 29 29 29 29 29 28 28 30 31 32 33 33 36 37 36 32 26 27 28 29 28 29 31 30 25 15 16 22 29 20 22 15 24 24 28 34 30 27 31
31 28 31 31 29 28 30 29 29 29 29 29 29 32 31 33 35 37 32 28 27 28 28 28 28 28 26 24 20 22 15 17 15 21 26 21 22 30 24 23 24 24 24
30 28 28 33 31 31 31 30 30 30 29 27 27 29 31 33 36 34 29 27 28 29 27 28 25 20 19 20 19 14 13 11 18 20 24 20 24 25 23 23 20 21 19